Regional Weather Roundup
Issued by NWS

Home | Current Version | Previous Version | Graphics & Text | Print | Product List | Glossary On
Versions: 1 2 3 4 5 6 7 8 9 10 11 12 13 14 15 16 17 18 19 20 21 22 23 24 25 26 27
000
ASUS43 KDMX 181607
RWRIA

WEATHER ROUNDUP FOR IOWA
NATIONAL WEATHER SERVICE DES MOINES IA
1100 AM CDT FRI APR 18 2014

NOTE: "FAIR" INDICATES FEW OR NO CLOUDS BELOW 12,000 FEET WITH NO
SIGNIFICANT WEATHER AND/OR OBSTRUCTIONS TO VISIBILITY.

* - THESE STATIONS ARE NOT NWS STATIONS...THUS NOT UNDER NWS
QUALITY CONTROL.  THEY ALSO DO NOT REPORT WEATHER SUCH
AS PRECIPITATION OR FOG.

IAZ001>003-012>014-020>022-031>034-043>046-181700-
   NORTHWEST IOWA

CITY           SKY/WX    TMP DP  RH WIND       PRES   REMARKS
CARROLL *      SUNNY     50  34  53 SE13G21   30.29F
CHEROKEE *     PTSUNNY   52  34  50 SE10G18   30.27R
DENISON *      SUNNY     54  32  43 S14G22    30.26F
LE MARS *      MOSUNNY   54  34  47 S14G21    30.24S
ORANGE CITY *  SUNNY     52  34  50 SE15      30.23S
SHELDON *      CLOUDY    48  34  57 SE14G20   30.25R
SIOUX CITY     SUNNY     53  34  48 SE13      30.24S
SPENCER        PTSUNNY   47  33  58 SE17      30.28F
STORM LAKE *   SUNNY     48  34  57 SE15G21   30.27F
$$

IAZ055>058-069>071-079>083-090>094-181700-
   SOUTHWEST IOWA

CITY           SKY/WX    TMP DP  RH WIND       PRES   REMARKS
ATLANTIC *     SUNNY     54  34  47 S12G18    30.28F
AUDUBON *      SUNNY     54  30  40 SE9       30.30S
CLARINDA *     SUNNY     54  36  50 SE10      30.32S
COUNCIL BLFS * SUNNY     54  36  50 S14       30.27S
CRESTON *      SUNNY     52  36  54 SE10      30.31S
HARLAN  *      SUNNY     54  34  47 S16       30.32S
LAMONI         SUNNY     52  35  52 VRB6      30.32S
RED OAK *      SUNNY     54  36  50 S15       30.29F
SHENANDOAH *   SUNNY     55  36  47 SE17      30.30F
$$

IAZ047>049-059>061-072>074-084-181700-
   CENTRAL IOWA

CITY           SKY/WX    TMP DP  RH WIND       PRES   REMARKS
AMES           SUNNY     48  35  60 SE9       30.33F
ANKENY *       SUNNY     48  36  61 SE10      30.34F
CHARITON *     SUNNY     50  36  57 SE6G12    30.34S
DES MOINES     MOSUNNY   49  35  58 SE8       30.34F
GRINNELL*      SUNNY     48  34  57 E5        30.36F
KNOXVILLE *    SUNNY     48  36  61 E8        30.35S
MARSHALLTOWN   SUNNY     46  33  60 SE9       30.35F
NEWTON *       SUNNY     48  34  57 E6        30.36F
PELLA *        SUNNY     50  36  57 E7        30.36F
PERRY *          N/A     50  34  53 SE12      30.31F
$$

IAZ004>006-015-016-023>025-035-036-181700-
   NORTH CENTRAL IOWA

CITY           SKY/WX    TMP DP  RH WIND       PRES   REMARKS
ALGONA *       SUNNY     46  32  57 SE10      30.32S
CLARION *      SUNNY     46  32  57 SE14G21   30.33S
ESTHERVILLE    PTSUNNY   44  33  65 SE15      30.30S
FORT DODGE *   SUNNY     48  34  57 SE8       30.33S
MASON CITY     MOSUNNY   42  32  67 SE14      30.35F
FOREST CITY *  SUNNY     43  32  65 SE12      30.33S
IOWA FALLS *     N/A     46  32  57 SE10      30.36R
$$

IAZ007>011-017>019-026>030-037>042-050>054-066-181700-
   NORTHEAST IOWA

CITY           SKY/WX    TMP DP  RH WIND       PRES   REMARKS
CEDAR RAPIDS   SUNNY     46  32  58 CALM      30.36R
CHARLES CITY * SUNNY     43  32  65 E9        30.36F
CLINTON *      SUNNY     46  34  61 NE6       30.39S
DECORAH *      SUNNY     43  27  52 VRB7      30.37R
DUBUQUE        SUNNY     45  32  60 N9        30.36S
MONTICELLO *   SUNNY     46  32  57 VRB5      30.37R
OELWEIN *      SUNNY    N/A N/A N/A VRB5      30.38S
WATERLOO       SUNNY     45  31  58 VRB6      30.36F
$$

IAZ064-065-067-068-078-181700-
   EAST CENTRAL IOWA

CITY           SKY/WX    TMP DP  RH WIND       PRES   REMARKS
DAVENPORT      SUNNY     49  34  56 VRB6      30.37F
IOWA CITY      SUNNY     47  36  65 S3        30.39R
MT. PLEASANT * SUNNY     52  34  50 N6        30.36S
MUSCATINE *    SUNNY     50  34  53 NE5       30.38R
QUAD CITIES    SUNNY     49  33  54 CALM      30.36S
$$

IAZ062-063-075>077-085>089-095>099-181700-
   SOUTHEAST IOWA

CITY           SKY/WX    TMP DP  RH WIND       PRES   REMARKS
BURLINGTON     SUNNY     52  35  52 NE8       30.35S
FAIRFIELD *    SUNNY     50  34  53 VRB5      30.37R
FORT MADISON * SUNNY     52  36  54 N6        30.36S
KEOKUK *       SUNNY     54  34  47 N7        30.35S
OSKALOOSA *      N/A     50  36  57 CALM      30.37R
CENTERVILLE *  SUNNY     54  34  47 E6        30.35S
OTTUMWA        SUNNY     50  34  54 CALM      30.36R
WASHINGTON *   SUNNY     50  32  50 CALM      30.37S
$$

ABBREVIATIONS USED IN REMARKS
   TC - TEMPERATURES IN CELSIUS
  WCI - WIND CHILL INDEX
   HX - HEAT INDEX
  VSB - VISIBILITY
$$




USA.gov is the U.S. government's official web portal to all federal, state and local government web resources and services.